Location: Alpino
(32.5215°N, 116.5815°W)
Time: 05:26:42
(UTC+00:00)

KORONAS-FOTON - Pass Details

Date: 13 April 2024
Orbit: 478 x 497 km, 82.4° (Epoch: 28 May)

Event Time Altitude Azimuth Distance (km) Brightness Sun altitude
Rises 11:24:39 0° 143° (SE) 2,552 7.4 -23.4°
Reaches altitude 10° 11:27:54 10° 111° (ESE) 1,671 6.9 -22.8°
Drops below altitude 10° 11:30:45 10° 65° (ENE) 1,670 7.5 -22.2°
Enters shadow 12:35:41 -52° 189° (S) 10,691 10.4 -9.6°
Maximum altitude 13:04:09 27° 281° (W) 964 4.7 -3.8°
